Weather in Bryuhovichi

Ukraine / Lviv District     49°35′08″N   24°34′39″E
temp.,
°C
wind,
m/s
gust,
m/s
humid.,
%
clouds,
%
prec.,
mm/h
press.,
hPa
HPBL,
m
31 july, sat
sat3100:00+18s33735 0.0 101138
03:00+17s33905 0.0 101038
06:00+17s228420 0.0 101015
09:00+20sse2370100 0.0 101091
12:00+26s4553100 0.0 1010522
15:00+29sse444782 0.0 10091099
18:00+28sse47540 0.0 10071164
21:00+18nne7119697 4.1 1009235
1 august, sun
sun100:00+17nne249799 4.9 1011153
03:00+17w2597100 5.0 1011238
06:00+15w11950 0.0 101111
09:00+19s21810 0.0 1012219
12:00+24se33610 0.0 1011657
15:00+27se5550100 0.0 1009902
18:00+27se6116099 0.0 1006635
21:00+20se111595100 3.2 1006334
2 august, mon
mon200:00+20sse399199 0.6 1006244
03:00+18w0091100 0.6 100611
06:00+16wnw34940 0.0 100788
09:00+19wnw578964 0.0 1008478
12:00+20nw6780100 0.0 1010802
15:00+16nw588499 0.2 1012499
18:00+17wnw468592 0.2 1012505
21:00+15wnw369194 0.2 1013275
3 august, tue
tue300:00+13wnw229416 0.0 101411
03:00+12wsw11955 0.0 101512
06:00+11wsw11950 0.0 101610
09:00+16w23800 0.0 1016322
12:00+21w34590 0.0 10161218
15:00+23wnw35518 0.3 10151976
18:00+23nnw345021 0.0 10151716
21:00+17nne12731 0.0 101611
4 august, wed
wed400:00+15ese118227 0.3 101611
03:00+14se228724 0.4 101624
06:00+14se22895 0.0 101523
09:00+18sse4578100 0.0 1015228
12:00+24sse455681 0.0 1015508
15:00+27sse3447100 0.0 10141225
18:00+23ene3463100 0.3 101380
21:00+20ese41167100 0.3 1013183